GFSNE_500_rhum_120.txt.gz
RH
30 27 26 21 20 21 21 18 30 40 67 48 18 19 33 51 71 76 71 44 33 33 31 21 13 12 10 11 12 14 35 58 71 92 92 90 97 96
26 28 28 27 24 19 22 24 26 30 30 32 31 27 25 24 59 82 85 82 65 64 30 20 18 13 16 21 24 52 80 90 88 70 62 97 94 95
19 17 17 17 16 16 16 17 17 14 10 12 15 28 42 49 33 63 93 89 99 96 97 90 94 88 71 51 59 94 99 96 83 85 73 85 77 79
26 28 30 28 24 15 12 12 12 12 11 11 16 18 20 21 33 44 36 93 100 97 99 92 87 79 98 79 75 93 94 94 91 98 86 97 74 82
46 46 44 43 34 26 20 17 17 16 16 15 14 15 17 20 20 20 43 33 72 99 99 100 95 94 94 99 92 89 98 87 91 87 99 91 98 100
48 50 48 46 36 25 20 18 16 16 15 15 14 14 14 14 15 19 26 34 39 45 98 95 100 98 87 98 97 99 97 99 98 97 98 97 89 96
55 50 43 33 25 20 15 16 18 23 28 31 30 30 28 21 16 16 18 30 51 43 55 98 97 98 96 98 99 99 98 96 98 98 95 85 80 88
56 47 33 22 15 15 22 34 38 32 22 21 20 22 28 41 45 30 19 22 31 60 44 42 96 99 97 100 99 94 98 98 98 97 98 90 98 95
48 28 16 16 31 34 20 13 10 10 9 8 8 10 10 10 15 30 43 29 25 40 50 52 49 100 99 99 98 99 100 98 98 98 99 92 95 100
23 15 24 36 24 14 11 12 12 11 10 10 9 8 8 9 10 8 11 26 39 37 33 51 62 63 100 98 99 99 100 98 98 97 97 97 96 96
19 31 33 15 14 14 15 14 15 17 18 20 18 14 12 12 12 11 10 7 11 23 44 25 60 51 80 99 100 100 100 94 99 98 98 97 95 93
36 28 14 16 18 21 19 19 22 28 37 41 33 26 20 21 22 16 10 9 7 7 9 27 26 56 57 80 97 100 99 100 98 99 97 97 99 98
28 14 17 19 23 26 21 24 31 43 55 57 43 34 25 24 28 26 21 16 12 7 6 12 24 26 49 67 62 94 100 98 100 100 100 98 99 98
16 13 19 25 30 30 27 30 44 52 74 71 58 53 31 27 27 25 23 21 17 13 11 5 9 21 23 42 74 53 95 97 100 100 99 99 99 98
13 23 25 27 33 43 38 32 45 89 94 89 77 68 47 32 32 31 21 9 8 7 8 9 5 7 21 20 41 80 51 88 97 100 100 100 99 98
22 23 29 37 41 48 53 55 76 93 90 90 83 81 57 37 37 32 14 12 13 13 8 6 8 5 7 21 22 48 73 46 96 88 98 97 99 99
21 26 37 36 30 26 33 43 55 81 99 100 94 89 48 40 42 33 24 33 39 40 32 18 7 8 5 7 22 32 55 72 49 69 52 92 99 99
20 29 35 28 16 20 25 38 64 88 100 100 100 83 42 43 37 44 42 59 60 56 45 30 19 8 8 6 9 23 42 60 81 43 58 46 91 98
18 38 41 21 16 22 40 52 67 89 100 100 99 48 45 35 34 48 60 79 78 66 58 48 28 13 7 8 8 9 27 51 65 80 45 53 32 85
25 43 49 38 37 58 60 70 85 100 100 100 62 47 48 28 39 64 89 84 78 77 80 72 42 23 12 8 8 8 10 31 62 72 80 56 46 38
40 54 60 58 61 68 71 88 91 100 100 62 53 59 36 32 72 90 82 86 90 94 100 99 75 36 22 14 8 9 9 11 34 67 75 83 70 54
46 52 56 62 68 78 90 85 76 83 53 63 69 42 33 58 88 85 84 96 97 94 98 100 100 75 51 26 16 10 9 9 10 33 68 70 89 89
48 48 52 68 76 84 79 76 43 33 50 64 42 32 37 91 89 84 91 97 97 100 100 100 100 100 91 57 36 21 12 10 8 10 34 64 73 90

GFSNE_500_rhum_123.txt.gz
RH
18 17 17 16 16 16 15 15 19 25 31 40 43 43 35 30 38 33 21 19 22 27 46 56 48 30 28 41 53 61 57 26 13 28 45 50 39 46
21 20 20 19 28 35 40 38 32 24 18 15 14 14 20 27 36 40 41 40 41 39 27 50 71 70 55 35 41 48 52 49 18 13 27 28 31 35
23 22 19 32 41 47 47 45 43 40 36 29 24 21 16 13 15 18 19 20 25 33 45 40 60 67 70 59 42 36 29 25 16 13 17 19 26 34
32 26 26 29 31 39 48 47 43 39 36 37 33 28 25 26 22 17 16 15 16 19 25 44 48 82 92 87 78 54 37 23 17 16 15 13 28 64
44 39 38 39 45 47 43 40 38 38 34 31 28 23 17 16 14 15 15 15 15 16 17 26 42 39 86 93 100 100 66 99 92 62 33 35 76 96
46 50 55 58 55 47 39 33 26 20 16 15 16 18 26 27 23 19 19 16 16 14 13 14 24 41 76 86 95 98 97 89 96 94 76 91 91 100
68 65 60 56 48 38 26 16 15 24 33 32 25 19 16 13 14 17 25 32 35 27 14 13 12 20 39 74 98 99 92 100 97 99 82 71 86 92
71 63 58 49 31 18 12 20 34 23 14 10 10 10 10 9 9 8 7 6 12 20 36 28 14 14 17 43 48 99 100 97 100 99 94 90 97 95
72 65 48 28 15 15 28 27 14 11 9 12 15 16 14 14 15 14 14 9 6 6 10 30 32 22 18 19 44 67 96 90 98 99 98 96 98 96
76 42 23 15 18 32 22 11 13 16 18 20 20 20 22 26 30 33 28 18 14 9 6 8 19 32 36 24 21 49 58 95 93 98 99 99 99 98
50 24 16 22 33 20 10 11 16 23 27 27 28 31 34 37 42 50 49 40 28 17 14 5 6 19 30 41 25 40 50 87 93 95 97 98 98 98
23 18 22 32 19 10 12 15 20 24 30 37 42 39 38 44 63 67 66 52 39 20 21 13 8 7 18 28 41 33 61 64 100 99 96 98 100 98
20 30 36 20 11 19 19 20 21 21 20 17 20 30 34 43 75 88 85 70 53 32 24 19 16 12 7 15 27 38 41 57 100 99 99 99 99 97
26 43 23 12 20 19 22 24 20 16 20 24 27 32 49 63 91 100 98 83 59 36 26 19 14 13 9 6 17 27 36 68 84 99 99 98 100 98
37 30 9 15 17 20 24 24 17 18 19 24 35 51 66 80 96 100 100 84 57 35 27 18 12 10 10 7 6 16 29 39 65 100 100 98 99 98
38 11 9 16 17 25 32 31 17 16 27 54 60 78 89 96 99 100 92 51 41 42 31 17 10 7 7 8 6 7 20 35 54 86 98 100 98 98
16 8 15 18 20 40 48 48 51 57 60 67 78 85 88 95 95 67 52 50 45 34 29 24 16 13 8 6 6 7 8 21 37 62 91 99 100 100
6 8 17 18 33 45 46 50 58 64 68 67 65 48 39 45 50 58 56 39 27 28 31 44 56 44 24 12 5 6 6 10 23 46 61 85 99 99
7 12 17 26 45 42 38 53 65 70 67 56 26 28 34 38 49 45 32 32 53 76 81 73 65 53 40 28 13 6 6 6 13 25 54 73 87 99
9 14 20 41 42 38 43 66 75 80 52 30 37 41 38 34 40 34 65 86 78 73 72 70 64 58 48 34 22 13 6 6 7 16 30 67 81 91
14 16 35 40 41 37 60 75 89 67 32 44 45 43 25 27 36 76 75 69 89 93 92 91 86 76 68 50 28 23 7 7 7 10 21 43 82 72
14 30 43 44 38 45 75 84 91 36 41 39 41 28 35 50 68 73 75 87 97 95 98 100 91 95 94 79 46 29 18 8 9 8 14 30 62 81
18 41 46 44 37 61 78 86 58 39 34 48 43 33 46 57 62 72 80 93 100 97 98 99 99 100 100 100 79 43 27 12 10 9 9 19 45 79

GFSNE_500_rhum_126.txt.gz
RH
53 54 38 24 21 21 22 21 35 39 43 45 42 38 28 20 17 15 15 20 34 36 49 77 67 49 44 46 51 54 54 56 47 61 61 46 46 52
64 57 52 49 32 24 22 21 34 38 34 39 44 45 43 41 38 32 25 18 15 16 25 35 32 26 21 21 23 30 49 46 34 32 41 57 61 62
64 60 57 54 47 38 30 28 28 30 33 49 45 41 38 35 35 35 35 34 32 25 18 15 19 26 34 38 36 34 34 62 58 35 30 34 51 67
68 62 57 57 52 44 42 46 49 50 47 41 36 31 26 24 21 19 17 18 19 23 26 25 22 16 15 16 20 32 39 51 69 60 48 37 45 58
70 68 63 60 59 60 62 58 53 46 36 27 19 15 12 12 12 14 18 20 20 20 19 16 16 18 18 16 15 17 24 44 76 83 67 52 40 47
83 76 70 67 66 61 58 52 44 33 24 16 11 10 16 26 26 24 23 22 18 20 24 27 23 18 16 16 15 16 16 26 54 90 80 84 72 39
86 82 74 72 72 68 61 48 29 19 12 11 18 26 21 11 7 7 7 7 8 8 8 8 11 20 25 17 15 14 14 15 40 57 79 95 98 54
89 82 75 72 71 63 43 26 14 14 19 27 18 9 8 8 10 10 10 9 10 13 11 11 12 10 8 18 23 14 14 14 20 72 76 98 97 98
95 85 83 78 73 42 23 15 17 24 25 14 8 10 11 13 12 12 13 13 10 10 11 12 13 8 9 9 11 23 14 13 14 33 69 85 96 92
95 88 85 83 47 21 15 18 27 22 10 8 8 10 13 15 14 11 12 15 16 17 16 21 29 23 17 10 6 9 21 15 13 17 50 84 87 100
99 94 84 66 24 17 18 26 19 10 14 15 15 16 16 14 13 17 21 25 27 33 40 39 40 36 32 22 12 6 8 22 16 12 30 69 88 98
96 95 88 40 19 23 28 20 9 13 15 16 20 20 16 17 19 17 18 24 31 42 57 54 62 52 34 30 18 11 5 13 24 15 14 39 84 93
99 98 73 22 22 30 23 8 13 15 18 24 27 22 18 16 17 29 47 55 58 65 80 74 79 62 38 22 22 20 10 5 18 25 14 29 51 84
100 96 36 25 33 27 9 12 16 17 31 36 37 37 38 45 51 57 62 64 62 58 72 79 71 61 39 27 19 20 17 7 8 25 19 21 45 52
100 65 26 34 31 9 10 16 16 25 39 38 39 42 49 54 60 62 52 34 24 28 48 63 64 46 37 28 15 15 16 13 6 12 25 18 48 49
98 31 29 36 11 7 13 17 19 40 36 33 41 51 61 71 63 31 27 32 36 38 48 49 48 40 34 28 15 12 13 14 11 7 29 22 33 55
62 30 39 22 7 9 16 18 39 39 35 44 62 65 69 40 24 27 41 42 38 50 50 42 29 23 19 17 13 10 10 13 13 9 18 27 30 63
37 38 35 9 9 15 18 44 43 37 48 69 71 60 29 28 23 21 23 25 31 34 48 64 68 69 54 53 34 22 14 10 12 10 11 23 33 62
36 44 16 8 13 16 42 43 36 45 72 73 57 26 32 25 26 38 47 60 69 68 66 61 60 60 58 60 61 41 22 13 10 10 8 17 28 49
45 33 9 11 15 40 44 35 31 58 73 64 29 30 39 34 34 42 51 55 63 82 93 86 80 80 84 77 66 48 18 12 8 9 8 11 22 40
46 15 9 16 31 45 42 25 25 54 73 36 25 34 40 50 56 59 68 80 84 85 87 85 80 78 87 86 80 60 30 10 9 7 8 7 17 32
33 8 14 19 44 47 38 25 26 65 60 25 28 36 43 48 59 72 80 86 84 82 84 83 83 94 92 92 98 79 41 15 11 7 7 7 12 25
15 9 17 31 50 49 40 29 28 78 54 28 31 40 46 48 50 57 69 76 80 82 84 88 90 93 97 100 99 88 49 19 12 10 6 7 8 18

GFSNE_500_rhum_129.txt.gz
RH
61 65 63 63 58 54 51 48 47 32 23 19 20 27 40 41 35 35 39 40 38 35 33 30 24 17 17 27 53 54 41 50 66 70 61 64 73 69
64 66 67 61 60 58 56 53 50 46 39 30 28 29 30 32 38 42 41 37 35 34 32 31 31 31 31 21 17 29 56 58 46 58 67 65 61 88
63 58 62 64 62 64 62 57 54 52 48 45 45 48 50 48 42 35 26 22 19 19 18 16 16 16 19 26 30 21 16 34 40 29 28 42 47 52
59 67 64 68 64 65 69 66 58 53 54 58 56 49 43 35 28 23 17 12 10 9 9 9 10 13 15 17 26 31 31 18 15 27 28 25 23 25
43 74 63 75 76 72 77 74 67 61 57 54 54 46 36 27 18 13 9 8 9 12 16 19 21 22 21 20 17 17 25 30 27 16 14 26 41 40
38 77 72 74 78 77 78 79 69 63 60 54 46 31 18 13 10 9 13 20 22 17 12 9 8 8 9 12 18 22 19 18 22 25 20 14 13 29
37 72 70 79 81 82 86 80 76 68 62 46 23 14 11 10 13 20 22 14 8 8 8 8 7 7 7 7 6 5 12 21 21 17 21 20 14 13
40 49 63 87 86 89 91 88 79 69 48 22 14 12 14 18 20 15 9 6 8 11 9 10 11 8 7 7 8 8 6 5 11 23 20 17 19 17
48 56 85 85 88 93 96 95 83 55 24 14 14 19 21 15 13 8 6 7 8 10 10 8 12 14 14 14 13 12 11 10 6 5 17 22 16 16
64 95 87 92 91 98 98 96 74 25 15 15 21 20 12 8 9 9 10 10 10 9 9 10 13 13 14 16 21 22 21 17 18 8 4 14 20 16
100 93 90 96 99 100 99 94 44 18 20 27 21 11 11 14 15 16 15 13 13 11 12 12 13 20 23 24 29 32 33 30 27 18 6 4 15 18
100 97 98 97 100 99 99 72 25 23 28 20 11 15 15 21 31 30 28 24 24 26 37 36 31 36 32 37 41 43 45 45 37 23 11 4 5 18
100 100 100 100 100 100 93 48 24 28 21 7 11 15 16 30 33 29 27 29 38 45 58 51 49 58 57 48 49 42 38 32 24 21 14 8 4 11
100 100 100 100 100 100 83 32 29 24 8 8 16 16 23 35 32 35 51 59 56 43 32 24 20 18 19 22 23 26 26 26 28 24 18 12 6 5
100 100 100 100 100 100 54 34 28 8 9 15 16 26 34 32 55 63 49 28 18 19 17 16 19 25 30 33 34 36 32 37 37 21 17 14 8 4
100 100 100 100 100 90 39 33 9 9 15 18 31 30 25 52 52 28 18 26 25 27 34 33 31 31 32 29 24 22 26 25 28 19 12 14 10 5
100 100 100 100 100 52 41 13 10 15 27 35 27 20 36 48 19 25 32 37 43 51 44 44 51 54 57 60 66 75 41 20 17 15 12 12 12 6
100 100 100 100 73 47 21 10 15 26 34 28 19 26 49 21 24 36 37 47 57 68 74 76 76 78 82 89 82 63 60 62 35 16 12 11 13 8
100 100 100 92 48 38 10 14 32 42 38 24 21 52 33 23 26 26 38 49 57 68 73 68 72 76 69 77 95 85 57 48 41 33 17 11 12 10
100 100 100 54 51 14 12 22 47 46 36 26 39 53 22 24 29 39 58 77 84 76 71 72 70 73 81 80 86 96 81 50 33 28 24 10 12 12
100 100 71 54 31 10 17 41 52 46 40 29 58 26 22 33 48 56 63 98 100 100 100 95 91 85 85 92 99 98 96 74 35 30 21 10 11 12
100 94 53 52 11 14 27 54 54 47 34 41 51 20 36 53 71 85 96 100 100 100 100 100 100 100 99 97 100 100 100 90 46 31 21 10 10 13
100 64 58 28 11 20 44 60 57 49 27 56 28 29 46 64 73 87 92 99 100 100 100 100 100 100 100 100 100 100 100 100 71 35 23 10 8 11

GFSNE_500_rhum_135.txt.gz
RH
12 12 13 13 14 16 16 17 18 22 28 29 28 32 30 41 48 53 55 50 48 40 26 22 23 29 34 33 35 37 35 29 23 20 20 28 45 45
22 23 22 20 20 19 18 17 17 18 26 30 32 36 37 38 49 54 61 62 53 50 50 46 42 40 42 43 41 38 35 32 31 30 28 26 22 19
26 26 26 26 26 26 25 23 23 22 24 32 30 34 46 43 48 56 66 72 69 61 54 50 50 49 46 41 36 32 28 24 19 19 23 27 28 28
27 29 30 30 31 31 31 30 29 28 28 34 37 36 38 46 48 52 64 76 75 72 70 61 54 48 43 36 28 20 17 16 14 13 12 11 10 14
24 24 23 24 28 32 33 35 34 36 37 40 44 44 64 65 57 54 66 80 81 77 72 57 42 27 21 19 18 16 13 12 10 9 8 9 9 8
27 34 34 36 37 32 34 37 38 42 42 43 46 62 84 68 62 64 81 88 92 84 73 43 26 18 14 13 13 12 12 12 12 13 14 14 15 16
46 46 44 37 29 33 41 44 46 48 48 49 58 89 81 70 69 74 89 99 97 94 66 23 16 16 15 15 15 15 15 15 15 15 14 13 13 12
38 32 27 35 40 50 55 56 57 58 59 60 87 85 76 72 74 87 95 100 77 57 24 21 17 19 18 17 16 16 15 13 11 8 7 6 6 6
16 20 34 49 55 62 67 68 71 68 66 67 83 86 80 80 89 95 100 95 42 28 21 23 19 16 15 12 11 11 12 12 10 9 8 7 7 6
19 33 58 68 67 64 69 76 74 66 79 100 91 92 84 92 92 99 95 62 30 23 20 16 12 12 11 12 15 17 18 18 18 19 18 15 12 9
35 58 67 63 70 75 77 84 100 100 99 98 100 94 95 96 94 99 69 34 20 14 10 12 10 11 13 15 12 12 12 11 10 9 10 12 15 17
59 77 80 89 100 100 97 98 100 100 100 100 100 100 100 100 98 74 44 20 14 11 15 15 15 11 10 14 16 15 14 18 16 12 9 11 13 11
100 100 100 100 100 97 97 99 100 100 100 100 100 100 98 98 76 37 16 11 12 18 17 13 14 15 14 17 25 32 32 33 32 33 20 12 9 10
100 100 100 100 97 90 80 99 97 97 100 100 100 100 100 84 27 12 13 19 22 19 17 18 17 26 31 36 46 49 47 46 51 48 30 31 30 19
48 60 71 94 97 90 100 100 100 100 100 100 100 100 87 23 14 18 30 28 22 23 19 24 33 36 40 48 54 63 51 59 64 62 52 35 41 44
39 88 96 89 94 100 100 100 100 100 100 100 100 91 24 13 21 33 35 26 24 20 32 46 44 42 50 66 72 69 69 65 67 69 72 57 50 59
62 100 97 99 100 100 100 100 100 100 100 100 96 31 14 18 38 39 30 24 21 30 52 65 58 54 59 81 89 84 84 81 71 70 82 87 68 58
47 98 100 100 100 100 100 100 100 98 100 97 44 14 16 33 47 40 22 28 22 39 55 64 59 56 65 92 100 95 94 86 81 79 82 94 96 94
23 76 94 100 100 100 100 100 100 100 99 60 16 15 25 52 50 27 30 22 24 39 55 69 68 65 60 70 100 100 90 98 94 90 96 100 100 100
52 88 78 95 100 100 100 100 100 100 73 25 15 21 47 55 47 27 35 20 28 37 62 76 82 79 77 72 88 100 100 93 95 90 99 100 100 100
84 86 75 100 100 100 100 100 100 82 41 15 18 37 56 57 38 32 38 26 31 40 50 74 83 74 53 62 87 100 100 100 97 92 98 96 98 100
100 96 100 100 100 100 100 100 91 55 19 17 32 54 63 62 32 39 46 31 41 55 61 81 92 60 50 50 86 100 100 100 100 100 100 93 84 100
100 100 100 100 100 100 100 97 67 27 16 27 47 59 67 58 30 45 68 33 39 51 62 77 85 79 67 48 50 99 99 100 100 100 100 100 94 94

GFSNE_500_rhum_138.txt.gz
RH
21 22 23 22 26 26 26 24 22 21 25 23 20 22 22 22 22 22 24 28 26 24 33 42 49 48 46 33 26 34 38 39 40 35 34 34 31 28
39 41 39 39 38 36 31 19 17 18 24 27 26 23 22 25 26 26 26 28 30 30 32 37 43 56 56 50 46 38 34 34 35 37 42 39 38 37
30 34 39 38 31 22 16 13 21 29 28 28 28 26 28 29 31 31 30 31 32 35 37 36 41 54 64 63 57 53 53 53 54 50 46 41 38 36
30 27 22 25 27 33 45 44 41 44 37 37 34 31 32 31 34 38 36 36 41 56 55 50 48 56 68 72 68 63 58 53 48 44 39 34 29 27
44 42 39 46 42 46 48 44 40 37 34 31 37 42 46 45 45 45 44 50 68 74 63 56 61 67 75 78 77 72 61 51 44 37 30 23 21 20
20 19 18 17 16 15 14 15 20 29 25 26 40 50 54 55 54 54 63 83 84 74 64 71 84 97 98 87 88 92 74 40 23 19 17 16 15 14
18 17 16 14 14 14 15 23 32 46 52 49 60 55 61 66 61 62 83 96 86 80 80 90 97 100 99 99 99 89 63 23 16 16 16 16 15 14
16 16 14 14 14 16 23 38 57 62 58 59 60 64 73 69 67 71 91 94 93 96 100 100 96 100 96 82 67 35 21 18 18 18 17 16 15 15
12 13 13 14 17 22 36 49 74 74 72 70 72 72 77 75 82 95 94 94 98 100 99 100 92 95 73 38 25 20 19 19 18 18 16 16 15 15
10 10 13 17 20 32 64 84 85 88 91 86 85 94 100 99 91 91 100 100 100 100 93 100 91 52 22 14 14 14 14 14 14 13 13 12 12 11
9 11 11 15 63 73 95 100 100 98 97 88 97 100 96 90 88 86 98 100 100 100 92 84 37 16 12 14 16 14 12 11 10 9 8 7 7 6
8 6 3 5 53 86 100 100 100 100 96 88 97 84 94 93 90 90 98 100 100 76 55 35 13 14 17 16 15 14 12 12 12 12 12 12 13 13
4 3 3 4 5 21 42 86 53 59 81 100 100 100 98 90 93 96 100 100 81 21 12 11 20 19 16 13 15 19 23 26 25 23 25 27 26 25
3 3 3 4 4 12 40 72 84 92 98 100 100 100 100 97 97 98 98 86 31 14 21 19 21 17 14 14 19 26 31 32 35 39 40 39 41 43
3 3 3 4 4 34 95 100 100 100 100 100 100 100 100 100 99 100 88 28 14 27 29 27 17 16 16 23 23 33 34 44 51 46 45 47 56 58
3 3 3 4 5 46 100 100 100 100 100 100 100 100 100 100 100 89 24 14 31 44 35 21 19 19 27 27 31 36 50 53 52 54 56 62 70 75
3 3 3 4 6 39 92 100 100 100 100 100 100 100 100 100 94 28 16 31 50 47 31 26 21 27 30 30 40 51 52 50 54 56 67 70 76 84
4 3 4 4 10 26 64 96 99 100 100 100 100 100 100 98 37 16 23 49 52 42 31 31 24 34 36 46 58 56 51 50 45 46 84 79 77 96
4 4 4 5 15 48 89 89 100 100 100 100 100 100 98 46 16 23 45 56 57 34 37 29 26 34 36 46 67 90 58 59 48 40 93 97 86 99
4 4 4 5 23 85 100 100 100 100 100 100 100 99 60 17 20 36 60 62 56 32 42 33 36 35 40 43 49 70 94 84 52 35 80 94 95 97
5 4 4 5 59 100 100 100 100 100 100 100 100 75 20 18 35 58 67 67 49 33 52 40 42 51 51 50 57 70 96 75 46 37 84 91 83 86
5 5 4 7 88 100 100 100 100 100 100 100 87 25 17 27 46 62 68 69 43 33 70 72 40 44 56 62 62 69 64 46 41 39 100 96 85 86
6 5 5 18 100 100 100 100 100 100 100 94 27 17 25 39 48 64 68 40 30 50 72 73 60 42 51 49 45 48 40 33 29 38 100 100 94 91